Regional Weather Roundup
Issued by NWS

Home | Current Version | Previous Version | Graphics & Text | Print | Product List | Glossary On
Versions: 1 2 3 4 5 6 7 8 9 10 11 12 13 14 15 16 17 18 19 20 21 22 23 24 25 26 27 28 29 30 31 32 33 34 35 36 37 38 39 40 41 42 43 44 45 46 47 48 49 50
000
ASUS43 KIND 221509
RWRIN

WEATHER ROUNDUP FOR INDIANA
NATIONAL WEATHER SERVICE INDIANAPOLIS IN
1100 AM EDT FRI MAY 22 2015

NOTE: "FAIR" INDICATES FEW OR NO CLOUDS BELOW 12,000 FEET WITH NO
SIGNIFICANT WEATHER AND/OR OBSTRUCTIONS TO VISIBILITY.

* - STATION DOES NOT REPORT WEATHER SUCH AS PRECIPITATION OR FOG.

+ - STATION NOT QUALITY CONTROLLED BY THE NATIONAL WEATHER SERVICE.
    USE DATA WITH CAUTION...ESPECIALLY DEWPOINT AND RELATIVE
    HUMIDITY OBSERVATIONS.

INZ001>003-010>013-019-020-221600-
NORTHWEST INDIANA

CITY           SKY/WX    TMP DP  RH WIND       PRES   REMARKS
GARY /AIRPORT/ SUNNY     55  46  71 N7        30.21R
KNOX *+        SUNNY     63  45  51 NE3       30.18R
LA PORTE +     SUNNY     65  44  45 NE5       30.19S
MICHIGAN CITY+ SUNNY     63  37  39 CALM      30.19S
MONTICELLO +   SUNNY     63  48  56 N6        30.18R
RENSSELAER +   SUNNY     64  48  55 N5        30.19R
VALPARAISO     SUNNY     65  46  50 NE6       30.19R

$$

LMZ046-743>745-221600-
SOUTHERN LAKE MICHIGAN

STATION/POSITION TIME  TEMP    WIND        PRES    WAVE
                       AIR SEA DIR/SP/G            HT
                 (UTC) (F)     (DEG/KT/KT) (MB)    (FT)
BURNS HARBOR     1500   50     360/  7/  9 1023.0R
MICHIGAN CITY    1500   52     350/ 13/ 14   N/A
5NW MICH CITY    1500   49 51   30/ 12/ 14   N/A     1

$$

INZ004-005-014>016-021>024-221600-
NORTH CENTRAL INDIANA

CITY           SKY/WX    TMP DP  RH WIND       PRES   REMARKS
ELKHART        SUNNY     61  32  33 E8        30.20R
GOSHEN         SUNNY     62  37  39 NE12      30.19R
LOGANSPORT +   SUNNY     63  45  51 N3        30.19R
PERU/GRISSOM   SUNNY     62  48  60 VRB5      30.17R
ROCHESTER +    SUNNY     64  46  52 NE3       30.18S
SOUTH BEND     SUNNY     63  31  30 E8        30.19S
WARSAW +       SUNNY     61  39  44 E6        30.19R

$$

INZ006>009-017-018-025>027-221600-
NORTHEAST INDIANA

CITY           SKY/WX    TMP DP  RH WIND       PRES   REMARKS
ANGOLA *+      SUNNY     59  48  67 VRB6      30.18S
AUBURN +       SUNNY     63  32  31 NE7       30.20R
FORT WAYNE     SUNNY     63  45  51 NE9       30.19R
HUNTINGTON +   SUNNY     62  47  58 NE6       30.18R

$$

INZ028-029-035-036-043>045-051>053-221600-
WEST CENTRAL INDIANA

CITY           SKY/WX    TMP DP  RH WIND       PRES   REMARKS
CRAWFORDSVL +  SUNNY     61  43  52 W7        30.20R
GREENCASTLE +  SUNNY     61  45  55 CALM      30.21S
LAFAYETTE      SUNNY     61  48  62 W3        30.19R
TERRE HAUTE    SUNNY     62  48  60 SW8       30.22R

$$

INZ030>032-037>040-046>048-054>057-064-065-221600-
CENTRAL INDIANA

CITY           SKY/WX    TMP DP  RH WIND       PRES   REMARKS
ANDERSON       SUNNY     61  43  51 W6        30.20R
CP ATTERBURY + SUNNY     64  48  55 SW8       30.21S
COLUMBUS       SUNNY     63  46  55 SW8       30.22S
FRANKFORT +    SUNNY     64  49  56 W5        30.21R
GREENWOOD *+   SUNNY     63  45  51 SW7       30.21R
INDIANAPOLIS   SUNNY     64  47  53 W9        30.19R
-EAGLE CREEK   SUNNY     62  47  57 W6        30.19R
KOKOMO *+      SUNNY     63  48  59 N6        30.19R
MARION +       SUNNY     60  46  57 N3        30.19R
MT COMFORT *+  SUNNY     64  36  34 W6        30.20R
SHELBYVILLE    SUNNY     66  46  48 W12       30.19S
ZIONSVILLE +   SUNNY     64  46  51 W8        30.19S

$$

INZ033-034-041-042-049-050-058-059-221600-
EAST CENTRAL INDIANA

CITY           SKY/WX    TMP DP  RH WIND       PRES   REMARKS
MUNCIE         SUNNY     62  47  57 W6        30.19R

$$

INZ060-061-067>069-081>083-085>088-221600-
SOUTHWEST INDIANA

CITY           SKY/WX    TMP DP  RH WIND       PRES   REMARKS
EVANSVILLE     SUNNY     65  46  50 SW14      30.28S
HUNTINGBURG *+ SUNNY     63  48  59 SW14      30.27F
WASHINGTON +   SUNNY     64  43  47 SW12      30.24S

$$

INZ062-063-066-070>080-084-089>092-221600-
SOUTH CENTRAL AND SOUTHEAST INDIANA

CITY           SKY/WX    TMP DP  RH WIND       PRES   REMARKS
BLOOMINGTON    SUNNY     63  47  55 W9        30.22S
MADISON *+     SUNNY     63  43  48 SW8       30.26S
NORTH VERNON + SUNNY     64  48  55 SW10G16   30.23S
SEYMOUR +      SUNNY     66  46  48 SW10      30.23S

$$




USA.gov is the U.S. government's official web portal to all federal, state and local government web resources and services.